"2010-05-26 00:00:00",144460,6.73,151.2,4.82,0.389,15.03,106.0977,14.88,15.8,38.62,0,110.5,13.35,15.69,113.2
"2010-05-26 00:00:30",144461,7.344,143,3.399,0.271,14.89,106.0895,14.86,15.79,37.93,0,110.5,13.35,15.67,105.0
"2010-05-26 00:01:00",144462,7.668,140.4,2.666,0.192,14.88,106.0872,14.86,15.78,37.84,0,110.5,13.35,15.66,102.4
"2010-05-26 00:01:30",144463,8.16,143,5.691,0.569,14.9,106.0872,14.86,15.78,38.3,0,110.5,13.35,15.66,105.0
"2010-05-26 00:02:00",144464,7.237,135.2,2.996,0.391,15.01,106.0872,14.86,15.77,38.11,0,110.5,13.35,15.66,97.2
"2010-05-26 00:02:30",144465,7.208,133.8,4.726,0.441,14.97,106.0737,14.82,15.77,38.58,0,110.5,13.36,15.63,95.8
"2010-05-26 00:03:00",144466,7.637,148.3,4.331,0.41,14.99,106.054,14.77,15.75,38.75,0,110.5,13.36,15.57,110.3
"2010-05-26 00:03:30",144467,7.651,151.1,2.977,0.533,14.92,106.0534,14.77,15.73,38.86,0,110.5,13.36,15.57,113.1
"2010-05-26 00:04:00",144468,7.516,147.7,2.744,0.577,14.83,106.0534,14.77,15.71,38.8,0,110.5,13.36,15.57,109.7
"2010-05-26 00:04:30",144469,6.379,161.1,4.479,0.559,14.92,106.0461,14.75,15.69,38.84,0,110.5,13.35,15.55,123.1
"2010-05-26 00:05:00",144470,6.064,150.9,5.499,0.92,14.74,106.0283,14.71,15.68,38.64,0,110.5,13.35,15.51,112.9
"2010-05-26 00:05:30",144471,6.618,157.9,3.539,0.241,14.82,106.0317,14.71,15.66,38.38,0,110.5,13.35,15.52,119.9
"2010-05-26 00:06:00",144472,6.072,158.4,3.107,0.207,14.74,106.0424,14.74,15.65,38.44,0,110.5,13.35,15.54,120.4
"2010-05-26 00:06:30",144473,5.878,157.5,4.385,0.264,14.72,106.0444,14.75,15.66,38.5,0,110.5,13.35,15.55,119.5
"2010-05-26 00:07:00",144474,5.712,155.8,3.887,0.179,14.62,106.0388,14.73,15.65,38.57,0,110.5,13.35,15.54,117.8
"2010-05-26 00:07:30",144475,6.22,150.3,3.726,0.63,14.56,106.0199,14.68,15.64,38.98,0,110.5,13.35,15.49,112.3
"2010-05-26 00:08:00",144476,7.075,141.7,2.213,0.312,14.57,106.0196,14.68,15.63,39.29,0,110.5,13.35,15.49,103.7
"2010-05-26 00:08:30",144477,6.578,135.1,4.287,0.412,14.63,106.0196,14.68,15.62,39.04,0,110.5,13.35,15.49,97.1
"2010-05-26 00:09:00",144478,6.409,136.3,3.526,0.239,14.61,106.0196,14.68,15.61,38.97,0,110.5,13.35,15.49,98.3
"2010-05-26 00:09:30",144479,6.457,142.4,6.094,0.605,14.6,106.0185,14.68,15.58,39.4,0,110.5,13.35,15.48,104.4
"2010-05-26 00:10:00",144480,6.895,142.9,3.938,0.336,14.72,106.0035,14.64,15.58,39.16,0,110.5,13.35,15.44,104.9
"2010-05-26 00:10:30",144481,6.762,138.7,3.584,0.251,14.78,105.9911,14.61,15.57,39.33,0,110.5,13.35,15.41,100.7
"2010-05-26 00:11:00",144482,6.885,142.5,4.669,0.48,14.79,105.9866,14.6,15.57,39.08,0,110.5,13.35,15.40,104.5
"2010-05-26 00:11:30",144483,7.762,153.4,5.809,0.753,14.78,105.9914,14.61,15.55,39.4,0,110.5,13.35,15.41,115.4
"2010-05-26 00:12:00",144484,5.991,152.8,21.6,0.685,14.75,105.9892,14.61,15.54,39.5,0,110.5,13.35,15.41,114.8
"2010-05-26 00:12:30",144485,6.282,143,7.46,0.494,14.78,105.9858,14.6,15.55,39.48,0,110.5,13.35,15.40,105.0
"2010-05-26 00:13:00",144486,5.361,126.2,4.205,0.778,14.73,105.9858,14.6,15.53,39.56,0,110.5,13.35,15.40,88.2
"2010-05-26 00:13:30",144487,4.626,113.1,7.032,0.751,14.73,105.9858,14.6,15.52,39.76,0,110.5,13.35,15.40,75.1
"2010-05-26 00:14:00",144488,6.992,130.1,3.729,0.716,14.76,105.9858,14.6,15.51,39.77,0,110.5,13.35,15.40,92.1
"2010-05-26 00:14:30",144489,8.21,132.1,3.372,0.472,14.89,105.9858,14.6,15.51,40.82,0,110.5,13.35,15.40,94.1
"2010-05-26 00:15:00",144490,7.554,145.5,8.46,0.214,15,105.9928,14.61,15.52,41.04,0,110.5,13.35,15.42,107.5
"2010-05-26 00:15:30",144491,6.616,148.2,3.57,0.426,14.87,106.0044,14.64,15.53,41.09,0,110.5,13.35,15.45,110.2
"2010-05-26 00:16:00",144492,6.879,149.1,1.73,0.696,14.71,105.9923,14.61,15.53,40.98,0,110.5,13.35,15.42,111.1
"2010-05-26 00:16:30",144493,7.018,143.9,2.699,0.256,14.77,105.9858,14.6,15.53,40.82,0,110.5,13.35,15.40,105.9
"2010-05-26 00:17:00",144494,7.615,133.5,6.303,0.609,14.85,105.9858,14.6,15.51,41.08,0,110.5,13.35,15.40,95.5
"2010-05-26 00:17:30",144495,6.658,136.3,7.788,0.278,14.98,105.9858,14.6,15.51,40.67,0,110.5,13.35,15.40,98.3
"2010-05-26 00:18:00",144496,7.384,138.4,2.863,0.278,14.92,105.9858,14.6,15.5,41.26,0,110.5,13.35,15.40,100.4
"2010-05-26 00:18:30",144497,7.398,142.7,1.55,0.258,14.98,105.9824,14.59,15.5,41.31,0,110.5,13.35,15.39,104.7
"2010-05-26 00:19:00",144498,7.313,141.4,2.165,0.322,14.95,105.9641,14.54,15.49,40.71,0,110.5,13.36,15.34,103.4
"2010-05-26 00:19:30",144499,7.189,137.8,1.69,0.2,14.96,105.9537,14.51,15.47,40.94,0,110.5,13.35,15.32,99.8
"2010-05-26 00:20:00",144500,6.492,137.4,3.784,0.171,15.04,105.952,14.51,15.46,41.14,0,110.5,13.36,15.31,99.4
"2010-05-26 00:20:30",144501,6.629,145,1.755,0.205,14.95,105.952,14.51,15.45,40.99,0,110.5,13.36,15.31,107.0
"2010-05-26 00:21:00",144502,6.938,145.4,2.882,0.211,14.82,105.9508,14.51,15.44,40.72,0,110.5,13.36,15.31,107.4
"2010-05-26 00:21:30",144503,7.244,140.1,2.179,0.276,14.83,105.9418,14.48,15.43,40.6,0,110.5,13.35,15.29,102.1
"2010-05-26 00:22:00",144504,7.219,138.7,1.526,0.098,14.89,105.93,14.45,15.43,40.82,0,110.5,13.35,15.26,100.7
"2010-05-26 00:22:30",144505,7.049,136.8,1.922,0.265,15.07,105.919,14.43,15.41,40.74,0,110.5,13.35,15.23,98.8
"2010-05-26 00:23:00",144506,6.617,139.8,4.726,0.246,15.2,105.9182,14.42,15.41,40.9,0,110.5,13.35,15.23,101.8
"2010-05-26 00:23:30",144507,6.664,141,4.432,0.358,15.1,105.9182,14.42,15.39,40.82,0,110.5,13.35,15.23,103.0
"2010-05-26 00:24:00",144508,6.691,135.7,2.121,0.312,14.92,105.9182,14.42,15.39,40.93,0,110.5,13.35,15.23,97.7
"2010-05-26 00:24:30",144509,6.46,136.9,3.086,0.432,14.95,105.9182,14.42,15.39,40.93,0,110.5,13.35,15.23,98.9
"2010-05-26 00:25:00",144510,5.312,140,4.112,0.344,14.84,105.9182,14.42,15.39,41.06,0,110.5,13.35,15.23,102.0
"2010-05-26 00:25:30",144511,4.791,141,4.868,0.642,14.79,105.9182,14.42,15.4,40.98,0,110.5,13.35,15.23,103.0
"2010-05-26 00:26:00",144512,3.974,137.7,2.968,0.382,14.68,105.919,14.43,15.39,41.03,0,110.5,13.35,15.23,99.7
"2010-05-26 00:26:30",144513,4.685,134.3,4.901,0.291,14.71,105.9198,14.43,15.41,40.79,0,110.5,13.35,15.23,96.3
"2010-05-26 00:27:00",144514,4.875,128,2.803,0.296,14.72,105.9325,14.46,15.38,40.74,0,110.5,13.35,15.26,90.0
"2010-05-26 00:27:30",144515,4.346,128.4,1.423,0.141,14.78,105.9497,14.5,15.4,40.69,0,110.5,13.35,15.31,90.4
"2010-05-26 00:28:00",144516,4.508,131.4,3.513,0.178,14.78,105.952,14.51,15.4,40.7,0,110.5,13.35,15.31,93.4
"2010-05-26 00:28:30",144517,4.957,126.9,4.135,0.414,14.62,105.952,14.51,15.42,40.78,0,110.5,13.35,15.31,88.9
"2010-05-26 00:29:00",144518,4.939,122.7,1.801,0.29,14.77,105.952,14.51,15.41,40.69,0,110.5,13.35,15.31,84.7
"2010-05-26 00:29:30",144519,5.382,124.4,2.462,0.257,15.03,105.9517,14.51,15.42,40.35,0,110.5,13.35,15.31,86.4
"2010-05-26 00:30:00",144520,6.533,126.4,2.234,0.342,14.96,105.9486,14.5,15.4,40.22,0,110.5,13.35,15.30,88.4
"2010-05-26 00:30:30",144521,6.324,125.8,2.888,0.329,14.93,105.95,14.5,15.4,40.66,0,110.5,13.35,15.31,87.8
"2010-05-26 00:31:00",144522,5.901,127.2,4.213,0.371,15.07,105.943,14.49,15.39,41.34,0,110.5,13.35,15.29,89.2
"2010-05-26 00:31:30",144523,5.846,134.2,3.573,0.381,15.1,105.9227,14.43,15.38,41.05,0,110.5,13.35,15.24,96.2
"2010-05-26 00:32:00",144524,6.407,116.1,4.666,0.573,15.21,105.9182,14.42,15.36,40.87,0,110.5,13.35,15.23,78.1
"2010-05-26 00:32:30",144525,5.795,116.8,2.627,0.252,15.41,105.9182,14.42,15.36,40.26,0,110.5,13.35,15.23,78.8
"2010-05-26 00:33:00",144526,5.416,118,2.943,0.266,15.47,105.9182,14.42,15.34,40.48,0,110.5,13.35,15.23,80.0
"2010-05-26 00:33:30",144527,5.572,121.1,2.481,0.333,15.33,105.9182,14.42,15.34,41.13,0,110.5,13.35,15.23,83.1
"2010-05-26 00:34:00",144528,5.939,124.1,2.374,0.232,15.33,105.9179,14.42,15.36,41.84,0,110.5,13.35,15.22,86.1
"2010-05-26 00:34:30",144529,6.468,121.1,3.483,0.357,15.42,105.9094,14.4,15.34,41.45,0,110.5,13.35,15.20,83.1
"2010-05-26 00:35:00",144530,6.061,122.8,3.65,0.416,15.29,105.9007,14.38,15.32,41.81,0,110.4,13.35,15.18,84.8
"2010-05-26 00:35:30",144531,5.444,124.5,3.626,0.205,15.14,105.8869,14.34,15.32,42.19,0,110.4,13.36,15.15,86.5
"2010-05-26 00:36:00",144532,5.557,118.2,2.83,0.253,15.08,105.8843,14.34,15.31,42.42,0,110.4,13.36,15.14,80.2
"2010-05-26 00:36:30",144533,6.734,123.3,4.629,0.468,14.92,105.8843,14.34,15.3,41.56,0,110.4,13.35,15.14,85.3
"2010-05-26 00:37:00",144534,6.917,125.4,5.697,0.365,14.93,105.8843,14.34,15.29,41.25,0,110.4,13.36,15.14,87.4
"2010-05-26 00:37:30",144535,7.228,120.9,4.468,0.256,14.95,105.8843,14.34,15.27,41.27,0,110.4,13.36,15.14,82.9
"2010-05-26 00:38:00",144536,7.409,115.2,1.666,0.164,15,105.8846,14.34,15.28,40.83,0,110.4,13.36,15.14,77.2
"2010-05-26 00:38:30",144537,7.135,116.4,1.236,0.119,15.09,105.8855,14.34,15.29,40.5,0,110.4,13.36,15.14,78.4
"2010-05-26 00:39:00",144538,6.542,112.5,2.114,0.33,15.12,105.9029,14.38,15.31,39.96,0,110.4,13.36,15.19,74.5
"2010-05-26 00:39:30",144539,6.348,111.8,1.386,0.258,15.02,105.9165,14.42,15.3,40.42,0,110.4,13.36,15.22,73.8
"2010-05-26 00:40:00",144540,6.808,116.8,2.149,0.205,14.9,105.9187,14.42,15.33,41.37,0,110.4,13.36,15.23,78.8
"2010-05-26 00:40:30",144541,6.342,118.3,2.052,0.274,14.98,105.9185,14.42,15.32,40.71,0,110.4,13.36,15.23,80.3
"2010-05-26 00:41:00",144542,6.852,118.9,1.814,0.288,15.01,105.9185,14.42,15.35,40.56,0,110.4,13.36,15.23,80.9
"2010-05-26 00:41:30",144543,6.667,118.9,1.726,0.102,14.95,105.9182,14.42,15.37,40.62,0,110.4,13.36,15.23,80.9
"2010-05-26 00:42:00",144544,6.731,116.6,1.636,0.316,14.92,105.9185,14.42,15.36,40.76,0,110.4,13.36,15.23,78.6
"2010-05-26 00:42:30",144545,7.245,120.4,1.943,0.161,14.93,105.9193,14.43,15.37,40.93,0,110.4,13.36,15.23,82.4
"2010-05-26 00:43:00",144546,6.887,123.3,3.251,0.269,14.96,105.9221,14.43,15.39,41.03,0,110.4,13.36,15.24,85.3
"2010-05-26 00:43:30",144547,6.47,124.4,1.906,0.141,14.97,105.9235,14.44,15.39,41.41,0,110.4,13.36,15.24,86.4
"2010-05-26 00:44:00",144548,6.765,123.4,1.043,0.21,15,105.9291,14.45,15.38,40.6,0,110.4,13.36,15.25,85.4
"2010-05-26 00:44:30",144549,6.454,121.7,1.615,0.233,14.98,105.9382,14.47,15.38,40.4,0,110.4,13.36,15.28,83.7
"2010-05-26 00:45:00",144550,5.819,119.3,1.893,0.097,14.95,105.9458,14.49,15.4,40.3,0,110.4,13.36,15.30,81.3
"2010-05-26 00:45:30",144551,6.289,113.3,1.969,0.264,14.99,105.9497,14.5,15.4,40.28,0,110.4,13.36,15.31,75.3
"2010-05-26 00:46:00",144552,6.763,114.4,2.08,0.217,14.95,105.952,14.51,15.41,40.33,0,110.4,13.36,15.31,76.4
"2010-05-26 00:46:30",144553,6.918,115.1,1.019,0.166,14.92,105.952,14.51,15.42,40.79,0,110.4,13.36,15.31,77.1
"2010-05-26 00:47:00",144554,6.4,115.5,1.168,0.132,14.89,105.9517,14.51,15.41,40.66,0,110.4,13.36,15.31,77.5
"2010-05-26 00:47:30",144555,6.859,115.9,1.653,0.21,14.9,105.9503,14.51,15.43,40.79,0,110.4,13.36,15.31,77.9
"2010-05-26 00:48:00",144556,7.4,117,1.244,0.098,14.98,105.9458,14.49,15.41,40.91,0,110.4,13.36,15.30,79.0
"2010-05-26 00:48:30",144557,7.482,115.1,1.064,0.115,14.95,105.941,14.48,15.4,40.94,0,110.4,13.36,15.28,77.1
"2010-05-26 00:49:00",144558,7.541,114.2,0.928,0.154,15.03,105.9337,14.46,15.41,40.77,0,110.4,13.36,15.27,76.2
"2010-05-26 00:49:30",144559,7.323,114.7,2.209,0.2,14.95,105.9289,14.45,15.41,41.28,0,110.4,13.36,15.25,76.7
"2010-05-26 00:50:00",144560,7.252,114.7,2.413,0.149,14.99,105.9204,14.43,15.4,41.6,0,110.4,13.36,15.23,76.7
"2010-05-26 00:50:30",144561,6.891,112.7,0.801,0.1,15.06,105.9184,14.42,15.4,41.12,0,110.4,13.36,15.23,74.7
"2010-05-26 00:51:00",144562,7.238,109.3,2.81,0.287,15.06,105.9185,14.42,15.39,41.07,0,110.4,13.36,15.23,71.3
"2010-05-26 00:51:30",144563,7.341,107.7,1.454,0.167,15.04,105.9185,14.42,15.38,41.04,0,110.4,13.36,15.23,69.7
"2010-05-26 00:52:00",144564,7.16,107.7,1.675,0.296,15.04,105.9185,14.42,15.4,42.49,0,110.4,13.36,15.23,69.7
"2010-05-26 00:52:30",144565,7.268,111.4,1.627,0.259,15.06,105.9187,14.42,15.39,41.56,0,110.4,13.36,15.23,73.4
"2010-05-26 00:53:00",144566,7.128,113.6,1.872,0.114,15.07,105.9191,14.43,15.37,41.41,0,110.4,13.36,15.23,75.6
"2010-05-26 00:53:30",144567,6.725,110,4.878,0.156,15.07,105.9193,14.43,15.37,41.6,0,110.4,13.36,15.23,72.0
"2010-05-26 00:54:00",144568,6.884,103.6,1.416,0.156,15.04,105.9202,14.43,15.37,42.49,0,110.4,13.36,15.23,65.6
"2010-05-26 00:54:30",144569,6.205,108.6,2.6,0.202,14.95,105.9208,14.43,15.36,42.56,0,110.4,13.36,15.23,70.6
"2010-05-26 00:55:00",144570,6.726,113.8,2.184,0.45,15.02,105.9165,14.42,15.34,42.42,0,110.4,13.36,15.22,75.8
"2010-05-26 00:55:30",144571,7.191,115.1,1.696,0.118,15.1,105.9126,14.41,15.33,41.73,0,110.4,13.36,15.21,77.1
"2010-05-26 00:56:00",144572,7.359,113.6,1.598,0.349,15.1,105.9132,14.41,15.34,41.72,0,110.4,13.36,15.21,75.6
"2010-05-26 00:56:30",144573,7.487,112.2,1.338,0.1,15.1,105.9151,14.42,15.33,41.85,0,110.4,13.36,15.22,74.2
"2010-05-26 00:57:00",144574,7.625,107.5,2.419,0.128,15.18,105.9138,14.41,15.31,41.93,0,110.4,13.36,15.21,69.5
"2010-05-26 00:57:30",144575,7.486,107.8,1.666,0.129,15.13,105.9163,14.42,15.33,42.05,0,110.4,13.36,15.22,69.8
"2010-05-26 00:58:00",144576,7.511,111.1,2.103,0.279,15.1,105.9173,14.42,15.33,42.23,0,110.4,13.36,15.22,73.1
"2010-05-26 00:58:30",144577,7.492,108.2,1.348,0.367,15.15,105.9202,14.43,15.34,42.35,0,110.4,13.36,15.23,70.2
"2010-05-26 00:59:00",144578,6.741,106.2,2.944,0.593,15.14,105.9227,14.43,15.34,42.67,0,110.4,13.36,15.24,68.2
"2010-05-26 00:59:30",144579,7.203,105.9,2.309,0.387,15.16,105.9212,14.43,15.33,42.65,0,110.4,13.36,15.23,67.9
"2010-05-26 01:00:00",144580,7.487,111.7,0.437,0.17,15.16,105.9194,14.43,15.33,42.47,0,110.4,13.36,15.23,73.7
"2010-05-26 01:00:30",144581,7.181,111.5,2.16,0.194,15.16,105.9171,14.42,15.31,42.57,0,110.4,13.36,15.22,73.5
"2010-05-26 01:01:00",144582,6.873,111.8,1.611,0.17,15.13,105.9127,14.41,15.33,42.6,0,110.4,13.37,15.21,73.8
"2010-05-26 01:01:30",144583,7.044,113.4,1.532,0.157,15.19,105.9123,14.41,15.33,42.57,0,110.4,13.37,15.21,75.4
"2010-05-26 01:02:00",144584,6.941,114.4,3.712,0.424,15.14,105.9142,14.41,15.31,42.47,0,110.4,13.37,15.22,76.4
"2010-05-26 01:02:30",144585,6.246,114.5,3.413,0.407,15.12,105.9119,14.41,15.31,42.63,0,110.4,13.37,15.21,76.5
"2010-05-26 01:03:00",144586,6.14,117.9,4.336,0.316,15.12,105.91,14.4,15.32,42.63,0,110.4,13.37,15.20,79.9
"2010-05-26 01:03:30",144587,6.338,112.4,4.026,0.25,15.14,105.9109,14.4,15.32,42.61,0,110.4,13.37,15.21,74.4
"2010-05-26 01:04:00",144588,6.663,113.6,3.39,0.327,15.19,105.9139,14.41,15.31,42.77,0,110.4,13.37,15.21,75.6
"2010-05-26 01:04:30",144589,6.68,117.3,1.46,0.292,15.17,105.9111,14.41,15.32,42.69,0,110.4,13.37,15.21,79.3
"2010-05-26 01:05:00",144590,6.35,106.1,2.585,0.238,15.18,105.9182,14.42,15.33,43.01,0,110.4,13.37,15.23,68.1
"2010-05-26 01:05:30",144591,6.486,109.3,2.521,0.168,15.13,105.9138,14.41,15.31,43.16,0,110.4,13.37,15.21,71.3
"2010-05-26 01:06:00",144592,6.08,115.5,5.021,0.317,15.18,105.9136,14.41,15.33,42.76,0,110.4,13.37,15.21,77.5
"2010-05-26 01:06:30",144593,6.884,112.5,3.479,0.261,15.17,105.9177,14.42,15.32,43.27,0,110.4,13.37,15.22,74.5
"2010-05-26 01:07:00",144594,7.445,111.6,1.359,0.266,15.19,105.9196,14.43,15.33,43.78,0,110.4,13.37,15.23,73.6
"2010-05-26 01:07:30",144595,7.094,115.2,2.024,0.209,15.22,105.9295,14.45,15.33,44,0,110.4,13.37,15.25,77.2
"2010-05-26 01:08:00",144596,7.056,118.9,2.187,0.237,15.17,105.9304,14.45,15.33,43.92,0,110.4,13.37,15.26,80.9
"2010-05-26 01:08:30",144597,6.505,119.8,4.928,0.262,15.2,105.9343,14.46,15.33,43.06,0,110.4,13.37,15.27,81.8
"2010-05-26 01:09:00",144598,5.982,108.5,2.696,0.181,15.16,105.9363,14.47,15.34,43.74,0,110.4,13.37,15.27,70.5
"2010-05-26 01:09:30",144599,6.397,107.3,2.957,0.191,15.16,105.9339,14.46,15.34,44.04,0,110.4,13.37,15.27,69.3
"2010-05-26 01:10:00",144600,6.253,120.7,2.221,0.482,15.12,105.9344,14.46,15.33,44.31,0,110.4,13.37,15.27,82.7
"2010-05-26 01:10:30",144601,6.497,120.9,3.3,0.327,15.22,105.9344,14.46,15.34,44.26,0,110.4,13.37,15.27,82.9
"2010-05-26 01:11:00",144602,6.425,126,3.443,0.339,15.21,105.9343,14.46,15.34,43.76,0,110.4,13.37,15.27,88.0
"2010-05-26 01:11:30",144603,7.045,119.4,5.318,0.274,15.26,105.9383,14.47,15.33,44.19,0,110.4,13.37,15.28,81.4
"2010-05-26 01:12:00",144604,7.366,124.7,4.094,0.333,15.3,105.942,14.48,15.34,43.54,0,110.4,13.36,15.29,86.7
"2010-05-26 01:12:30",144605,7.451,133.4,4.614,0.36,15.25,105.9451,14.49,15.35,42.88,0,110.4,13.36,15.29,95.4
"2010-05-26 01:13:00",144606,7.215,131.3,4.049,0.362,15.27,105.9507,14.51,15.36,42.91,0,110.4,13.36,15.31,93.3
"2010-05-26 01:13:30",144607,6.592,122.2,5.546,0.411,15.28,105.9513,14.51,15.34,42.82,0,110.4,13.36,15.31,84.2
"2010-05-26 01:14:00",144608,6.786,123.1,4.554,0.226,15.26,105.951,14.51,15.36,42.44,0,110.4,13.36,15.31,85.1
"2010-05-26 01:14:30",144609,7.05,124.3,2.341,0.281,15.24,105.9519,14.51,15.38,42.38,0,110.4,13.36,15.31,86.3
"2010-05-26 01:15:00",144610,6.841,121.5,3.577,0.423,15.24,105.9513,14.51,15.37,43.21,0,110.4,13.36,15.31,83.5
"2010-05-26 01:15:30",144611,6.173,117.2,3.749,0.239,15.23,105.9519,14.51,15.36,43.34,0,110.4,13.36,15.31,79.2
"2010-05-26 01:16:00",144612,6.645,122.9,3.447,0.481,15.19,105.9511,14.51,15.37,43.34,0,110.4,13.36,15.31,84.9
"2010-05-26 01:16:30",144613,7.205,121.3,3.426,0.511,15.27,105.9458,14.49,15.36,43.65,0,110.4,13.36,15.30,83.3
"2010-05-26 01:17:00",144614,7.058,121.7,3.601,0.316,15.23,105.9407,14.48,15.36,43.8,0,110.4,13.36,15.28,83.7
"2010-05-26 01:17:30",144615,7.698,124,5.317,0.283,15.29,105.9402,14.48,15.35,43.69,0,110.4,13.37,15.28,86.0
"2010-05-26 01:18:00",144616,7.255,124,2.777,0.456,15.35,105.9385,14.48,15.36,43.62,0,110.4,13.37,15.28,86.0
"2010-05-26 01:18:30",144617,6.575,118.6,2.058,0.189,15.26,105.9353,14.47,15.35,43.72,0,110.4,13.37,15.27,80.6
"2010-05-26 01:19:00",144618,7.529,125.2,3.436,0.44,15.31,105.9365,14.47,15.36,43.92,0,110.4,13.37,15.27,87.2
"2010-05-26 01:19:30",144619,7.512,126,2.149,0.291,15.3,105.9325,14.46,15.36,44.08,0,110.4,13.37,15.26,88.0
"2010-05-26 01:20:00",144620,7.147,123.6,1.626,0.164,15.31,105.9299,14.45,15.35,44.1,0,110.4,13.37,15.26,85.6
"2010-05-26 01:20:30",144621,6.958,124.1,1.718,0.196,15.32,105.9241,14.44,15.35,44.21,0,110.4,13.37,15.24,86.1
"2010-05-26 01:21:00",144622,6.805,121.4,1.521,0.419,15.36,105.9201,14.43,15.35,44.02,0,110.4,13.37,15.23,83.4
"2010-05-26 01:21:30",144623,7.682,126.6,1.425,0.186,15.39,105.9204,14.43,15.34,44.3,0,110.4,13.37,15.23,88.6
"2010-05-26 01:22:00",144624,7.819,127.5,2.887,0.476,15.41,105.9201,14.43,15.34,44.32,0,110.4,13.37,15.23,89.5
"2010-05-26 01:22:30",144625,6.719,127.9,2.291,0.207,15.44,105.921,14.43,15.34,44.26,0,110.4,13.37,15.23,89.9
"2010-05-26 01:23:00",144626,6.685,124.9,3.23,0.229,15.42,105.9219,14.43,15.34,44.16,0,110.4,13.37,15.24,86.9
"2010-05-26 01:23:30",144627,6.944,121,1.561,0.194,15.38,105.9227,14.43,15.34,43.99,0,110.4,13.37,15.24,83.0
"2010-05-26 01:24:00",144628,6.939,122.4,1.869,0.192,15.41,105.9241,14.44,15.34,44.11,0,110.4,13.37,15.24,84.4
"2010-05-26 01:24:30",144629,7.057,125.7,2.785,0.233,15.54,105.9233,14.44,15.34,44.29,0,110.4,13.37,15.24,87.7
"2010-05-26 01:25:00",144630,7.116,122.2,3.093,0.29,15.6,105.9213,14.43,15.35,44.42,0,110.4,13.37,15.23,84.2
"2010-05-26 01:25:30",144631,7.257,121.6,1.66,0.2,15.63,105.9216,14.43,15.36,44.4,0,110.4,13.37,15.23,83.6
"2010-05-26 01:26:00",144632,7.188,125.7,1.89,0.165,15.64,105.9202,14.43,15.35,44.43,0,110.4,13.37,15.23,87.7
"2010-05-26 01:26:30",144633,7.123,121.8,1.227,0.166,15.71,105.9202,14.43,15.35,44.48,0,110.4,13.37,15.23,83.8
"2010-05-26 01:27:00",144634,7.496,127.2,1.162,0.205,15.73,105.9202,14.43,15.35,44.68,0,110.4,13.37,15.23,89.2
"2010-05-26 01:27:30",144635,7.535,125.7,1.665,0.183,15.75,105.9202,14.43,15.35,44.96,0,110.4,13.37,15.23,87.7
"2010-05-26 01:28:00",144636,6.852,125.7,2.4,0.209,15.74,105.9202,14.43,15.34,44.87,0,110.4,13.37,15.23,87.7
"2010-05-26 01:28:30",144637,6.781,125.8,1.884,0.205,15.79,105.9202,14.43,15.34,45.12,0,110.4,13.37,15.23,87.8
"2010-05-26 01:29:00",144638,6.907,128.1,3.735,0.151,15.79,105.9202,14.43,15.34,44.93,0,110.4,13.37,15.23,90.1
"2010-05-26 01:29:30",144639,6.829,128.5,2.726,0.092,15.8,105.9193,14.43,15.33,44.88,0,110.4,13.37,15.23,90.5
"2010-05-26 01:30:00",144640,6.813,124.1,1.732,0.277,15.81,105.9171,14.42,15.32,45.07,0,110.4,13.37,15.22,86.1
"2010-05-26 01:30:30",144641,6.57,126.3,2.268,0.119,15.8,105.912,14.41,15.33,45.13,0,110.4,13.37,15.21,88.3
"2010-05-26 01:31:00",144642,6.577,126.2,1.943,0.206,15.82,105.9092,14.4,15.33,44.95,0,110.4,13.37,15.20,88.2
"2010-05-26 01:31:30",144643,7.028,121.9,1.734,0.109,15.85,105.903,14.38,15.32,44.98,0,110.4,13.37,15.19,83.9
"2010-05-26 01:32:00",144644,6.904,119.1,1.221,0.158,15.86,105.8937,14.36,15.32,44.84,0,110.4,13.37,15.16,81.1
"2010-05-26 01:32:30",144645,6.857,117.6,1.52,0.103,15.82,105.8889,14.35,15.32,45,0,110.4,13.37,15.15,79.6
"2010-05-26 01:33:00",144646,6.591,119,1.757,0.148,15.87,105.8877,14.35,15.31,44.95,0,110.4,13.37,15.15,81.0
"2010-05-26 01:33:30",144647,6.229,119.4,2.262,0.18,15.83,105.8866,14.34,15.31,44.96,0,110.4,13.37,15.14,81.4
"2010-05-26 01:34:00",144648,6.379,122.6,1.342,0.229,15.83,105.8863,14.34,15.3,45.28,0,110.4,13.38,15.14,84.6
"2010-05-26 01:34:30",144649,6.33,128.2,1.381,0.098,15.88,105.8866,14.34,15.31,45.63,0,110.4,13.38,15.14,90.2
"2010-05-26 01:35:00",144650,6.231,128.3,1.956,0.268,15.88,105.8869,14.34,15.31,45.77,0,110.4,13.38,15.15,90.3
"2010-05-26 01:35:30",144651,6.801,126.4,6.739,1.363,17.6,105.8908,14.35,15.44,45.48,0,110.4,13.35,15.16,88.4
"2010-05-26 01:36:00",144652,6.142,124.3,8.14,1.057,16.98,105.8905,14.35,15.44,45.15,0,110.4,13.35,15.15,86.3
"2010-05-26 01:36:30",144653,5.549,121.5,1.735,0.289,15.43,105.8917,14.36,15.3,45.49,0,110.4,13.38,15.16,83.5
"2010-05-26 01:37:00",144654,6.297,119.8,1.392,0.195,15.31,105.8944,14.36,15.3,45.13,0,110.4,13.38,15.16,81.8
"2010-05-26 01:37:30",144655,6.319,117.1,3.035,0.269,15.37,105.8974,14.37,15.29,45.4,0,110.4,13.38,15.17,79.1
"2010-05-26 01:38:00",144656,6.25,124.2,2.041,0.222,15.42,105.8962,14.37,15.3,45.44,0,110.4,13.38,15.17,86.2
"2010-05-26 01:38:30",144657,6.5,123.8,1.403,0.204,15.53,105.8989,14.37,15.28,45.66,0,110.4,13.38,15.18,85.8
"2010-05-26 01:39:00",144658,7.113,118.2,2.015,0.305,15.64,105.9019,14.38,15.28,45.75,0,110.4,13.38,15.18,80.2
"2010-05-26 01:39:30",144659,7.214,119.8,1.472,0.219,15.73,105.8995,14.38,15.29,46,0,110.3,13.38,15.18,81.8
"2010-05-26 01:40:00",144660,7.26,120.6,3.396,0.248,15.75,105.9016,14.38,15.28,46,0,110.3,13.38,15.18,82.6
"2010-05-26 01:40:30",144661,6.724,122,2.418,0.175,15.76,105.9032,14.39,15.28,46.11,0,110.3,13.39,15.19,84.0
"2010-05-26 01:41:00",144662,6.711,124,0.94,0.208,15.85,105.9024,14.38,15.27,45.99,0,110.3,13.39,15.19,86.0
"2010-05-26 01:41:30",144663,6.791,123.9,1.875,0.123,15.86,105.8968,14.37,15.27,45.97,0,110.3,13.39,15.17,85.9
"2010-05-26 01:42:00",144664,6.692,122.9,1.476,0.167,15.83,105.897,14.37,15.27,46.17,0,110.3,13.39,15.17,84.9
"2010-05-26 01:42:30",144665,6.365,122.5,1.105,0.128,15.83,105.8889,14.35,15.27,46.23,0,110.3,13.39,15.15,84.5
"2010-05-26 01:43:00",144666,6.703,125.1,1.377,0.132,15.86,105.8883,14.35,15.27,46.33,0,110.3,13.39,15.15,87.1
"2010-05-26 01:43:30",144667,6.857,124,1.486,0.098,15.85,105.8886,14.35,15.26,46.3,0,110.3,13.39,15.15,86.0
"2010-05-26 01:44:00",144668,6.412,122.9,0.931,0.179,15.78,105.8883,14.35,15.26,46.51,0,110.3,13.39,15.15,84.9
"2010-05-26 01:44:30",144669,6.606,123.6,1.301,0.1,15.81,105.8883,14.35,15.27,46.63,0,110.3,13.39,15.15,85.6
"2010-05-26 01:45:00",144670,6.529,122.7,1.212,0.084,15.78,105.8883,14.35,15.27,46.69,0,110.3,13.39,15.15,84.7
"2010-05-26 01:45:30",144671,6.417,123.6,0.964,0.144,15.72,105.8883,14.35,15.29,46.92,0,110.3,13.39,15.15,85.6
"2010-05-26 01:46:00",144672,6.551,122.9,1.257,0.178,15.76,105.8883,14.35,15.28,47.1,0,110.3,13.39,15.15,84.9
"2010-05-26 01:46:30",144673,6.615,119.5,2.077,0.199,15.78,105.8883,14.35,15.27,47.04,0,110.3,13.39,15.15,81.5
"2010-05-26 01:47:00",144674,6.407,122.9,0.976,0.135,15.76,105.8883,14.35,15.28,47.18,0,110.3,13.39,15.15,84.9
"2010-05-26 01:47:30",144675,6.267,123.5,1.241,0.091,15.73,105.8883,14.35,15.26,47.31,0,110.3,13.39,15.15,85.5
"2010-05-26 01:48:00",144676,6.282,122.8,1.334,0.119,15.76,105.8883,14.35,15.27,47.22,0,110.3,13.39,15.15,84.8
"2010-05-26 01:48:30",144677,6.22,121.4,1.415,0.125,15.85,105.8883,14.35,15.26,47.19,0,110.3,13.39,15.15,83.4